Test XHTML 1.0 Strict Page for WU-History Testing
Datos historicos para Xert
Diario Historicos para Febrero 10, 2026 unidades:  Imperiales    Metrico   Ambos
« Anterior Dia
Proximo Dia »
Diario Semanal Mensual Anual Personalizado
  Max: Min: Promedio:
Temperatura: 71.6 °F 44.6 °F 65.8 °F
Punto de rocio: 51.8 °F 42.8 °F 48.7 °F
Humedad: 88% 43% 55%
Viento: 47.2mph 0mph 15.3mph
Rafagas: 47.2mph - -
Viento- - SW
Presion: 29.7 in 29.6 in -
Lluvia: 0 in    
Historical Graphs
 
 
Observa nuestra WebCam, mapa de radar de tormentas para Europa y mapa del radar de nuvosidad

Weather Camera

Radar Tormentas

Radar Sat24

Radar Meteociel





Condiciones meteorologicas Actuales:

Datos tabulados para Febrero 10, 2026
Hora Temperatura Punto Rocio Presion Viento Viento Rafagas Humedad Tasa lluvia (1 hora) solar Condiciones
00:00 48.2 °F 42.8 °F 29.7 in Calm   3.1 mph 80% 0 in 0.00 W/m2 unknown
00:14 48.2 °F 42.8 °F 29.7 in NNW 1.2 mph 1.2 mph 83% 0 in 0.00 W/m2 unknown
00:19 48.2 °F 42.8 °F 29.7 in WNW 1.9 mph 1.9 mph 84% 0 in 0.00 W/m2 unknown
00:24 46.4 °F 42.8 °F 29.7 in WNW 1.2 mph 1.9 mph 84% 0 in 0.00 W/m2 unknown
00:29 46.4 °F 42.8 °F 29.7 in NW 1.9 mph 1.9 mph 85% 0 in 0.00 W/m2 unknown
00:34 46.4 °F 42.8 °F 29.7 in NW 1.2 mph 1.9 mph 86% 0 in 0.00 W/m2 unknown
00:39 46.4 °F 42.8 °F 29.7 in WNW 1.9 mph 1.9 mph 87% 0 in 0.00 W/m2 unknown
00:44 46.4 °F 42.8 °F 29.7 in West 3.7 mph 3.7 mph 87% 0 in 0.00 W/m2 unknown
00:49 44.6 °F 42.8 °F 29.7 in West 3.1 mph 3.7 mph 87% 0 in 0.00 W/m2 unknown
00:54 46.4 °F 42.8 °F 29.7 in NNE 3.7 mph 3.7 mph 88% 0 in 0.00 W/m2 unknown
00:59 46.4 °F 42.8 °F 29.7 in WNW 3.7 mph 3.7 mph 88% 0 in 0.00 W/m2 unknown
01:04 46.4 °F 42.8 °F 29.7 in WNW 3.7 mph 8.1 mph 86% 0 in 0.00 W/m2 unknown
01:09 46.4 °F 42.8 °F 29.7 in SE 3.7 mph 3.7 mph 85% 0 in 0.00 W/m2 unknown
01:14 48.2 °F 42.8 °F 29.7 in ENE 3.7 mph 3.7 mph 84% 0 in 0.00 W/m2 unknown
01:19 50 °F 44.6 °F 29.7 in ESE 8.1 mph 9.9 mph 81% 0 in 0.00 W/m2 unknown
01:24 51.8 °F 44.6 °F 29.7 in SE 8.1 mph 8.1 mph 80% 0 in 0.00 W/m2 unknown
01:29 53.6 °F 46.4 °F 29.7 in East 11.8 mph 11.8 mph 79% 0 in 0.00 W/m2 unknown
01:34 59 °F 50 °F 29.7 in West 24.2 mph 24.2 mph 76% 0 in 0.00 W/m2 unknown
01:39 60.8 °F 50 °F 29.7 in West 21.1 mph 24.2 mph 67% 0 in 0.00 W/m2 unknown
01:44 62.6 °F 50 °F 29.7 in WSW 21.1 mph 21.1 mph 63% 0 in 0.00 W/m2 unknown
01:49 62.6 °F 50 °F 29.7 in SW 14.9 mph 28 mph 63% 0 in 0.00 W/m2 unknown
01:54 62.6 °F 50 °F 29.7 in WSW 19.3 mph 19.3 mph 64% 0 in 0.00 W/m2 unknown
01:59 62.6 °F 50 °F 29.7 in West 14.3 mph 19.3 mph 65% 0 in 0.00 W/m2 unknown
02:04 60.8 °F 50 °F 29.7 in WSW 23 mph 26.7 mph 65% 0 in 0.00 W/m2 unknown
02:09 60.8 °F 50 °F 29.7 in WSW 26.7 mph 26.7 mph 68% 0 in 0.00 W/m2 unknown
02:14 60.8 °F 50 °F 29.7 in SW 21.1 mph 21.1 mph 68% 0 in 0.00 W/m2 unknown
02:19 60.8 °F 50 °F 29.7 in WSW 21.1 mph 34.2 mph 67% 0 in 0.00 W/m2 unknown
02:24 60.8 °F 50 °F 29.7 in WSW 29.2 mph 29.2 mph 67% 0 in 0.00 W/m2 unknown
02:29 60.8 °F 50 °F 29.7 in WSW 26.7 mph 29.2 mph 66% 0 in 0.00 W/m2 unknown
02:34 60.8 °F 50 °F 29.7 in WSW 26.1 mph 29.2 mph 66% 0 in 0.00 W/m2 unknown
02:39 60.8 °F 50 °F 29.7 in WSW 24.9 mph 24.9 mph 66% 0 in 0.00 W/m2 unknown
02:44 62.6 °F 50 °F 29.6 in WSW 29.2 mph 29.2 mph 65% 0 in 0.00 W/m2 unknown
02:49 62.6 °F 50 °F 29.6 in WSW 21.7 mph 31.7 mph 64% 0 in 0.00 W/m2 unknown
02:54 62.6 °F 50 °F 29.6 in WSW 26.7 mph 29.2 mph 63% 0 in 0.00 W/m2 unknown
02:59 62.6 °F 48.2 °F 29.6 in WSW 21.7 mph 24.2 mph 62% 0 in 0.00 W/m2 unknown
03:04 62.6 °F 48.2 °F 29.6 in WSW 24.9 mph 32.9 mph 62% 0 in 0.00 W/m2 unknown
03:09 62.6 °F 48.2 °F 29.6 in WSW 24.2 mph 24.2 mph 62% 0 in 0.00 W/m2 unknown
03:14 62.6 °F 48.2 °F 29.6 in WSW 26.7 mph 26.7 mph 62% 0 in 0.00 W/m2 unknown
03:19 62.6 °F 48.2 °F 29.7 in WSW 26.1 mph 29.8 mph 61% 0 in 0.00 W/m2 unknown
03:24 62.6 °F 48.2 °F 29.7 in SW 18 mph 18 mph 61% 0 in 0.00 W/m2 unknown
03:29 62.6 °F 48.2 °F 29.7 in SW 23 mph 23 mph 61% 0 in 0.00 W/m2 unknown
03:34 62.6 °F 48.2 °F 29.7 in SW 23 mph 24.9 mph 61% 0 in 0.00 W/m2 unknown
03:39 62.6 °F 48.2 °F 29.7 in WSW 26.1 mph 26.1 mph 61% 0 in 0.00 W/m2 unknown
03:44 62.6 °F 48.2 °F 29.7 in WSW 26.1 mph 26.1 mph 60% 0 in 0.00 W/m2 unknown
03:49 62.6 °F 48.2 °F 29.7 in West 18 mph 26.1 mph 60% 0 in 0.00 W/m2 unknown
03:54 62.6 °F 48.2 °F 29.7 in WSW 18 mph 21.1 mph 60% 0 in 0.00 W/m2 unknown
03:58 62.6 °F 48.2 °F 29.7 in WSW 18 mph 18 mph 60% 0 in 0.00 W/m2 unknown
04:04 62.6 °F 48.2 °F 29.7 in WSW 16.8 mph 28 mph 59% 0 in 0.00 W/m2 unknown
04:09 62.6 °F 48.2 °F 29.7 in WSW 21.7 mph 21.7 mph 60% 0 in 0.00 W/m2 unknown
04:14 62.6 °F 48.2 °F 29.7 in SW 16.8 mph 16.8 mph 59% 0 in 0.00 W/m2 unknown
04:19 62.6 °F 48.2 °F 29.7 in West 16.8 mph 23 mph 59% 0 in 0.00 W/m2 unknown
04:24 62.6 °F 48.2 °F 29.7 in SSW 13 mph 13 mph 59% 0 in 0.00 W/m2 unknown
04:29 62.6 °F 48.2 °F 29.7 in WSW 21.7 mph 21.7 mph 59% 0 in 0.00 W/m2 unknown
04:34 62.6 °F 48.2 °F 29.7 in WSW 29.2 mph 29.2 mph 59% 0 in 0.00 W/m2 unknown
04:38 62.6 °F 48.2 °F 29.7 in WSW 19.3 mph 29.2 mph 58% 0 in 0.00 W/m2 unknown
04:44 62.6 °F 48.2 °F 29.7 in SW 18 mph 18 mph 59% 0 in 0.00 W/m2 unknown
04:49 62.6 °F 48.2 °F 29.7 in SW 9.9 mph 18 mph 59% 0 in 0.00 W/m2 unknown
04:53 62.6 °F 48.2 °F 29.7 in South 11.2 mph 11.2 mph 59% 0 in 0.00 W/m2 unknown
04:59 62.6 °F 48.2 °F 29.7 in SSE 11.8 mph 11.8 mph 60% 0 in 0.00 W/m2 unknown
05:04 62.6 °F 48.2 °F 29.7 in SW 11.2 mph 11.8 mph 60% 0 in 0.00 W/m2 unknown
05:09 62.6 °F 48.2 °F 29.7 in NNE 14.3 mph 14.3 mph 61% 0 in 0.00 W/m2 unknown
05:14 62.6 °F 48.2 °F 29.7 in ENE 11.8 mph 11.8 mph 61% 0 in 0.00 W/m2 unknown
05:19 62.6 °F 48.2 °F 29.7 in North 6.8 mph 11.8 mph 61% 0 in 0.00 W/m2 unknown
05:24 62.6 °F 48.2 °F 29.7 in SE 6.2 mph 6.2 mph 61% 0 in 0.00 W/m2 unknown
05:29 62.6 °F 48.2 °F 29.7 in SW 21.1 mph 21.1 mph 61% 0 in 0.00 W/m2 unknown
05:33 62.6 °F 48.2 °F 29.7 in SW 19.9 mph 19.9 mph 60% 0 in 0.00 W/m2 unknown
05:39 62.6 °F 48.2 °F 29.7 in WSW 11.2 mph 19.9 mph 61% 0 in 0.00 W/m2 unknown
05:44 62.6 °F 48.2 °F 29.7 in WSW 14.3 mph 19.9 mph 61% 0 in 0.00 W/m2 unknown
05:49 62.6 °F 48.2 °F 29.7 in WSW 6.8 mph 14.3 mph 61% 0 in 0.00 W/m2 unknown
05:54 62.6 °F 48.2 °F 29.7 in South 16.8 mph 16.8 mph 61% 0 in 0.00 W/m2 unknown
05:59 62.6 °F 48.2 °F 29.7 in SW 11.8 mph 16.8 mph 61% 0 in 0.00 W/m2 unknown
06:04 62.6 °F 48.2 °F 29.7 in SSW 11.2 mph 18 mph 61% 0 in 0.00 W/m2 unknown
06:09 62.6 °F 48.2 °F 29.7 in SSW 13 mph 13 mph 62% 0 in 0.00 W/m2 unknown
06:14 62.6 °F 48.2 °F 29.7 in WNW 8.7 mph 8.7 mph 62% 0 in 0.00 W/m2 unknown
06:19 62.6 °F 48.2 °F 29.7 in SSW 11.2 mph 13 mph 61% 0 in 0.00 W/m2 unknown
06:24 62.6 °F 48.2 °F 29.7 in South 9.9 mph 9.9 mph 60% 0 in 0.00 W/m2 unknown
06:29 62.6 °F 48.2 °F 29.7 in South 8.1 mph 9.9 mph 60% 0 in 0.00 W/m2 unknown
06:34 62.6 °F 48.2 °F 29.7 in North 6.2 mph 8.7 mph 61% 0 in 0.00 W/m2 unknown
06:39 62.6 °F 48.2 °F 29.7 in South 8.7 mph 8.7 mph 61% 0 in 0.00 W/m2 unknown
06:43 62.6 °F 48.2 °F 29.7 in SSE 6.2 mph 6.2 mph 62% 0 in 0.00 W/m2 unknown
06:49 60.8 °F 48.2 °F 29.7 in ENE 3.7 mph 9.9 mph 62% 0 in 0.00 W/m2 unknown
06:54 60.8 °F 48.2 °F 29.7 in ENE 6.2 mph 6.2 mph 62% 0 in 0.00 W/m2 unknown
06:59 60.8 °F 48.2 °F 29.7 in NNE 9.9 mph 9.9 mph 62% 0 in 0.00 W/m2 unknown
07:04 60.8 °F 48.2 °F 29.7 in SE 9.9 mph 9.9 mph 62% 0 in 0.00 W/m2 unknown
07:09 62.6 °F 48.2 °F 29.7 in WSW 8.7 mph 9.9 mph 62% 0 in 0.00 W/m2 unknown
07:14 62.6 °F 48.2 °F 29.7 in NNE 6.2 mph 6.2 mph 61% 0 in 0.00 W/m2 unknown
07:19 62.6 °F 48.2 °F 29.7 in East 6.2 mph 8.7 mph 62% 0 in 0.00 W/m2 unknown
07:24 60.8 °F 48.2 °F 29.7 in ENE 3.1 mph 3.1 mph 63% 0 in 0.00 W/m2 unknown
07:29 60.8 °F 48.2 °F 29.7 in East 11.2 mph 11.2 mph 64% 0 in 0.00 W/m2 unknown
07:34 60.8 °F 48.2 °F 29.7 in WNW 9.9 mph 11.2 mph 64% 0 in 0.00 W/m2 unknown
07:39 60.8 °F 48.2 °F 29.7 in SSE 1.9 mph 9.9 mph 64% 0 in 0.00 W/m2 unknown
07:44 60.8 °F 48.2 °F 29.7 in ESE 3.7 mph 3.7 mph 64% 0 in 0.00 W/m2 unknown
07:49 60.8 °F 48.2 °F 29.7 in ENE 6.8 mph 6.8 mph 64% 0 in 0.00 W/m2 unknown
07:54 60.8 °F 48.2 °F 29.7 in SSW 3.1 mph 3.1 mph 64% 0 in 0.00 W/m2 unknown
07:58 60.8 °F 48.2 °F 29.7 in ENE 3.1 mph 3.1 mph 64% 0 in 0.00 W/m2 unknown
08:04 62.6 °F 48.2 °F 29.7 in SSW 16.2 mph 16.2 mph 64% 0 in 0.00 W/m2 unknown
08:09 62.6 °F 48.2 °F 29.7 in ESE 6.8 mph 16.2 mph 60% 0 in 0.00 W/m2 unknown
08:14 62.6 °F 48.2 °F 29.7 in NNW 8.1 mph 8.1 mph 60% 0 in 11.00 W/m2 unknown
08:19 62.6 °F 48.2 °F 29.7 in South 9.9 mph 11.2 mph 60% 0 in 12.00 W/m2 unknown
08:24 62.6 °F 48.2 °F 29.7 in SSE 8.7 mph 8.7 mph 58% 0 in 18.00 W/m2 unknown
08:29 64.4 °F 48.2 °F 29.7 in WNW 19.3 mph 19.3 mph 58% 0 in 25.00 W/m2 unknown
08:34 64.4 °F 48.2 °F 29.7 in WSW 14.9 mph 19.3 mph 56% 0 in 32.00 W/m2 unknown
08:39 64.4 °F 48.2 °F 29.7 in SW 11.2 mph 14.9 mph 56% 0 in 37.00 W/m2 unknown
08:44 64.4 °F 48.2 °F 29.7 in SSW 8.7 mph 14.9 mph 58% 0 in 44.00 W/m2 unknown
08:49 64.4 °F 48.2 °F 29.7 in WSW 14.3 mph 14.3 mph 57% 0 in 58.00 W/m2 unknown
08:54 64.4 °F 48.2 °F 29.7 in WSW 9.9 mph 14.3 mph 57% 0 in 53.00 W/m2 unknown
08:59 64.4 °F 48.2 °F 29.7 in SW 16.2 mph 16.2 mph 56% 0 in 44.00 W/m2 unknown
09:04 64.4 °F 48.2 °F 29.7 in WSW 16.2 mph 16.8 mph 56% 0 in 42.00 W/m2 unknown
09:09 64.4 °F 48.2 °F 29.7 in South 14.9 mph 16.2 mph 55% 0 in 63.00 W/m2 unknown
09:14 64.4 °F 48.2 °F 29.7 in SSW 11.2 mph 11.2 mph 55% 0 in 84.00 W/m2 unknown
09:19 64.4 °F 48.2 °F 29.7 in WSW 9.9 mph 18 mph 55% 0 in 148.00 W/m2 unknown
09:24 66.2 °F 48.2 °F 29.7 in SE 18 mph 18 mph 55% 0 in 160.00 W/m2 unknown
09:29 66.2 °F 48.2 °F 29.7 in WSW 19.9 mph 19.9 mph 55% 0 in 153.00 W/m2 unknown
09:34 66.2 °F 48.2 °F 29.7 in SW 23 mph 24.9 mph 54% 0 in 149.00 W/m2 unknown
09:39 66.2 °F 48.2 °F 29.7 in WSW 13 mph 19.9 mph 54% 0 in 121.00 W/m2 unknown
09:43 66.2 °F 48.2 °F 29.7 in WSW 14.3 mph 14.3 mph 54% 0 in 134.00 W/m2 unknown
09:49 66.2 °F 48.2 °F 29.7 in SW 19.9 mph 19.9 mph 54% 0 in 267.00 W/m2 unknown
09:54 66.2 °F 48.2 °F 29.7 in SW 14.3 mph 14.3 mph 54% 0 in 267.00 W/m2 unknown
09:58 66.2 °F 48.2 °F 29.7 in SSE 8.1 mph 14.3 mph 53% 0 in 151.00 W/m2 unknown
10:04 66.2 °F 48.2 °F 29.7 in WNW 5 mph 14.3 mph 53% 0 in 244.00 W/m2 unknown
10:09 66.2 °F 48.2 °F 29.7 in SW 11.2 mph 11.2 mph 53% 0 in 244.00 W/m2 unknown
10:14 66.2 °F 48.2 °F 29.7 in SSE 6.8 mph 6.8 mph 53% 0 in 169.00 W/m2 unknown
10:19 66.2 °F 48.2 °F 29.7 in SSW 3.1 mph 6.8 mph 53% 0 in 128.00 W/m2 unknown
10:24 66.2 °F 50 °F 29.7 in ESE 5 mph 5 mph 54% 0 in 102.00 W/m2 unknown
10:29 66.2 °F 50 °F 29.7 in NNW 8.7 mph 8.7 mph 54% 0 in 93.00 W/m2 unknown
10:33 66.2 °F 50 °F 29.7 in West 3.7 mph 8.7 mph 54% 0 in 91.00 W/m2 unknown
10:39 66.2 °F 50 °F 29.7 in SW 6.2 mph 6.2 mph 54% 0 in 123.00 W/m2 unknown
10:44 66.2 °F 50 °F 29.7 in SSE 3.1 mph 3.1 mph 55% 0 in 420.00 W/m2 unknown
10:49 68 °F 50 °F 29.7 in SSE 1.9 mph 5 mph 54% 0 in 431.00 W/m2 unknown
10:54 68 °F 50 °F 29.7 in SSE 6.8 mph 6.8 mph 53% 0 in 431.00 W/m2 unknown
10:59 68 °F 50 °F 29.7 in NW 3.7 mph 6.8 mph 53% 0 in 434.00 W/m2 unknown
11:04 68 °F 50 °F 29.7 in South 6.2 mph 8.7 mph 52% 0 in 476.00 W/m2 unknown
11:09 68 °F 50 °F 29.7 in South 8.7 mph 8.7 mph 52% 0 in 452.00 W/m2 unknown
11:13 68 °F 50 °F 29.7 in SSE 3.1 mph 3.7 mph 51% 0 in 508.00 W/m2 unknown
11:19 69.8 °F 50 °F 29.7 in SSE 6.8 mph 6.8 mph 51% 0 in 508.00 W/m2 unknown
11:23 69.8 °F 50 °F 29.7 in SE 8.7 mph 8.7 mph 50% 0 in 478.00 W/m2 unknown
11:29 69.8 °F 50 °F 29.7 in SSE 5 mph 8.7 mph 51% 0 in 517.00 W/m2 unknown
11:34 69.8 °F 50 °F 29.7 in South 8.1 mph 9.9 mph 50% 0 in 524.00 W/m2 unknown
11:38 69.8 °F 50 °F 29.7 in SSE 13 mph 13 mph 49% 0 in 515.00 W/m2 unknown
11:44 69.8 °F 50 °F 29.7 in South 9.9 mph 9.9 mph 49% 0 in 534.00 W/m2 unknown
11:49 69.8 °F 51.8 °F 29.7 in SSW 6.8 mph 13 mph 50% 0 in 526.00 W/m2 unknown
11:54 71.6 °F 51.8 °F 29.7 in West 19.3 mph 19.3 mph 49% 0 in 570.00 W/m2 unknown
11:59 71.6 °F 50 °F 29.7 in West 11.2 mph 19.3 mph 48% 0 in 570.00 W/m2 unknown
12:04 71.6 °F 51.8 °F 29.7 in SSW 14.3 mph 19.3 mph 49% 0 in 645.00 W/m2 unknown
12:09 71.6 °F 51.8 °F 29.7 in WSW 14.3 mph 14.3 mph 47% 0 in 731.00 W/m2 unknown
12:14 71.6 °F 51.8 °F 29.7 in WSW 13 mph 13 mph 47% 0 in 186.00 W/m2 unknown
12:19 71.6 °F 50 °F 29.7 in WSW 13 mph 13 mph 47% 0 in 202.00 W/m2 unknown
12:24 71.6 °F 50 °F 29.7 in SW 26.7 mph 26.7 mph 47% 0 in 214.00 W/m2 unknown
12:29 71.6 °F 50 °F 29.7 in WSW 14.9 mph 26.7 mph 47% 0 in 257.00 W/m2 unknown
12:34 71.6 °F 50 °F 29.7 in WSW 11.8 mph 26.7 mph 48% 0 in 257.00 W/m2 unknown
12:38 71.6 °F 50 °F 29.7 in WSW 11.2 mph 13 mph 48% 0 in 255.00 W/m2 unknown
12:44 71.6 °F 50 °F 29.7 in WSW 24.9 mph 24.9 mph 48% 0 in 466.00 W/m2 unknown
12:49 71.6 °F 50 °F 29.7 in WSW 19.3 mph 24.9 mph 47% 0 in 517.00 W/m2 unknown
12:54 71.6 °F 50 °F 29.7 in SW 11.2 mph 24.9 mph 47% 0 in 517.00 W/m2 unknown
12:59 71.6 °F 51.8 °F 29.7 in West 8.7 mph 11.2 mph 48% 0 in 311.00 W/m2 unknown
13:04 71.6 °F 50 °F 29.7 in SW 5 mph 6.2 mph 47% 0 in 262.00 W/m2 unknown
13:08 71.6 °F 51.8 °F 29.7 in SSW 11.8 mph 11.8 mph 48% 0 in 357.00 W/m2 unknown
13:14 71.6 °F 50 °F 29.7 in WSW 11.8 mph 11.8 mph 47% 0 in 522.00 W/m2 unknown
13:19 71.6 °F 50 °F 29.7 in WSW 11.2 mph 14.3 mph 47% 0 in 582.00 W/m2 unknown
13:23 71.6 °F 51.8 °F 29.7 in WSW 14.3 mph 14.3 mph 47% 0 in 478.00 W/m2 unknown
13:29 71.6 °F 51.8 °F 29.7 in WSW 11.8 mph 11.8 mph 47% 0 in 439.00 W/m2 unknown
13:34 71.6 °F 51.8 °F 29.7 in SW 14.9 mph 14.9 mph 47% 0 in 529.00 W/m2 unknown
13:38 71.6 °F 51.8 °F 29.7 in SW 16.8 mph 16.8 mph 47% 0 in 478.00 W/m2 unknown
13:44 71.6 °F 50 °F 29.7 in WSW 18 mph 18 mph 46% 0 in 408.00 W/m2 unknown
13:49 71.6 °F 50 °F 29.7 in WSW 24.9 mph 24.9 mph 46% 0 in 378.00 W/m2 unknown
13:54 71.6 °F 50 °F 29.7 in WSW 23 mph 24.9 mph 46% 0 in 330.00 W/m2 unknown
13:59 71.6 °F 50 °F 29.7 in WSW 14.3 mph 23 mph 47% 0 in 262.00 W/m2 unknown
14:04 71.6 °F 50 °F 29.7 in WSW 23 mph 23 mph 47% 0 in 246.00 W/m2 unknown
14:09 71.6 °F 50 °F 29.7 in WSW 14.3 mph 23 mph 48% 0 in 227.00 W/m2 unknown
14:14 71.6 °F 50 °F 29.7 in WSW 14.9 mph 23 mph 48% 0 in 237.00 W/m2 unknown
14:19 71.6 °F 50 °F 29.7 in WSW 11.2 mph 14.9 mph 48% 0 in 237.00 W/m2 unknown
14:24 71.6 °F 50 °F 29.7 in WSW 24.2 mph 24.2 mph 49% 0 in 230.00 W/m2 unknown
14:29 69.8 °F 50 °F 29.7 in WSW 19.3 mph 24.2 mph 49% 0 in 227.00 W/m2 unknown
14:34 69.8 °F 50 °F 29.7 in West 16.2 mph 24.2 mph 49% 0 in 190.00 W/m2 unknown
14:39 69.8 °F 50 °F 29.7 in West 8.7 mph 9.9 mph 50% 0 in 221.00 W/m2 unknown
14:44 69.8 °F 50 °F 29.7 in WSW 11.2 mph 11.2 mph 50% 0 in 258.00 W/m2 unknown
14:49 69.8 °F 51.8 °F 29.7 in WSW 11.8 mph 11.8 mph 50% 0 in 313.00 W/m2 unknown
14:54 69.8 °F 50 °F 29.7 in WSW 26.1 mph 26.1 mph 49% 0 in 258.00 W/m2 unknown
14:59 69.8 °F 50 °F 29.7 in WSW 19.9 mph 26.1 mph 49% 0 in 186.00 W/m2 unknown
15:04 69.8 °F 50 °F 29.7 in SW 19.9 mph 29.2 mph 50% 0 in 192.00 W/m2 unknown
15:09 69.8 °F 50 °F 29.7 in WSW 14.9 mph 19.9 mph 50% 0 in 204.00 W/m2 unknown
15:14 69.8 °F 50 °F 29.7 in WSW 16.2 mph 16.2 mph 49% 0 in 237.00 W/m2 unknown
15:19 69.8 °F 50 °F 29.6 in SW 11.8 mph 21.1 mph 48% 0 in 374.00 W/m2 unknown
15:23 69.8 °F 50 °F 29.6 in SW 9.9 mph 9.9 mph 49% 0 in 374.00 W/m2 unknown
15:29 69.8 °F 50 °F 29.6 in SW 13 mph 13 mph 48% 0 in 232.00 W/m2 unknown
15:34 69.8 °F 50 °F 29.6 in WSW 11.8 mph 11.8 mph 48% 0 in 144.00 W/m2 unknown
15:39 69.8 °F 50 °F 29.6 in WSW 8.1 mph 11.8 mph 48% 0 in 378.00 W/m2 unknown
15:44 69.8 °F 50 °F 29.6 in WSW 18 mph 18 mph 48% 0 in 301.00 W/m2 unknown
15:49 71.6 °F 50 °F 29.6 in WSW 8.7 mph 18 mph 47% 0 in 134.00 W/m2 unknown
15:54 71.6 °F 50 °F 29.6 in SW 18 mph 18 mph 47% 0 in 178.00 W/m2 unknown
15:59 71.6 °F 48.2 °F 29.6 in WSW 14.3 mph 18 mph 45% 0 in 200.00 W/m2 unknown
16:04 71.6 °F 48.2 °F 29.6 in WSW 9.9 mph 18 mph 45% 0 in 345.00 W/m2 unknown
16:09 71.6 °F 48.2 °F 29.6 in WSW 11.8 mph 11.8 mph 44% 0 in 345.00 W/m2 unknown
16:14 71.6 °F 48.2 °F 29.7 in WSW 9.9 mph 9.9 mph 43% 0 in 301.00 W/m2 unknown
16:19 71.6 °F 48.2 °F 29.7 in SW 8.7 mph 16.8 mph 43% 0 in 174.00 W/m2 unknown
16:24 71.6 °F 48.2 °F 29.7 in WSW 11.2 mph 11.2 mph 43% 0 in 162.00 W/m2 unknown
16:28 71.6 °F 48.2 °F 29.7 in SSE 3.7 mph 8.7 mph 44% 0 in 134.00 W/m2 unknown
16:34 71.6 °F 48.2 °F 29.7 in South 16.8 mph 16.8 mph 43% 0 in 179.00 W/m2 unknown
16:39 71.6 °F 48.2 °F 29.7 in SSE 6.2 mph 6.2 mph 43% 0 in 179.00 W/m2 unknown
16:44 71.6 °F 48.2 °F 29.7 in SW 6.8 mph 6.8 mph 44% 0 in 174.00 W/m2 unknown
16:49 71.6 °F 48.2 °F 29.7 in SSW 6.8 mph 8.1 mph 44% 0 in 158.00 W/m2 unknown
16:53 71.6 °F 48.2 °F 29.7 in WSW 8.1 mph 8.1 mph 43% 0 in 111.00 W/m2 unknown
16:58 71.6 °F 48.2 °F 29.7 in SW 11.8 mph 11.8 mph 43% 0 in 105.00 W/m2 unknown
17:04 71.6 °F 48.2 °F 29.7 in WSW 11.2 mph 13 mph 43% 0 in 95.00 W/m2 unknown
17:09 71.6 °F 48.2 °F 29.7 in South 6.8 mph 11.2 mph 43% 0 in 83.00 W/m2 unknown
17:14 71.6 °F 48.2 °F 29.6 in West 5 mph 5 mph 45% 0 in 67.00 W/m2 unknown
17:19 69.8 °F 48.2 °F 29.6 in SW 11.8 mph 11.8 mph 45% 0 in 58.00 W/m2 unknown
17:23 69.8 °F 48.2 °F 29.6 in SW 3.7 mph 3.7 mph 45% 0 in 47.00 W/m2 unknown
17:29 69.8 °F 48.2 °F 29.7 in SW 6.8 mph 6.8 mph 47% 0 in 44.00 W/m2 unknown
17:34 69.8 °F 48.2 °F 29.6 in SSE 5 mph 9.9 mph 47% 0 in 35.00 W/m2 unknown
17:38 69.8 °F 48.2 °F 29.7 in SW 3.7 mph 3.7 mph 47% 0 in 32.00 W/m2 unknown
17:44 69.8 °F 48.2 °F 29.6 in SSW 9.9 mph 9.9 mph 48% 0 in 28.00 W/m2 unknown
17:49 69.8 °F 48.2 °F 29.6 in SW 3.7 mph 8.7 mph 48% 0 in 28.00 W/m2 unknown
17:54 69.8 °F 48.2 °F 29.6 in South 6.2 mph 6.2 mph 46% 0 in 23.00 W/m2 unknown
17:59 69.8 °F 48.2 °F 29.7 in WSW 8.1 mph 8.1 mph 47% 0 in 18.00 W/m2 unknown
18:03 69.8 °F 48.2 °F 29.7 in WSW 6.2 mph 6.2 mph 47% 0 in 12.00 W/m2 unknown
18:09 69.8 °F 48.2 °F 29.7 in WSW 11.8 mph 11.8 mph 46% 0 in 12.00 W/m2 unknown
18:14 69.8 °F 48.2 °F 29.7 in WSW 18 mph 18 mph 45% 0 in 9.00 W/m2 unknown
18:19 69.8 °F 48.2 °F 29.6 in WSW 18 mph 26.7 mph 45% 0 in 5.00 W/m2 unknown
18:24 69.8 °F 48.2 °F 29.7 in SW 14.9 mph 18 mph 45% 0 in 0.00 W/m2 unknown
18:29 69.8 °F 48.2 °F 29.7 in WSW 14.3 mph 14.9 mph 45% 0 in 0.00 W/m2 unknown
18:34 69.8 °F 48.2 °F 29.7 in WSW 11.8 mph 14.9 mph 45% 0 in 0.00 W/m2 unknown
18:39 69.8 °F 48.2 °F 29.7 in WSW 19.3 mph 19.3 mph 45% 0 in 0.00 W/m2 unknown
18:44 69.8 °F 48.2 °F 29.7 in WSW 26.1 mph 26.1 mph 44% 0 in 0.00 W/m2 unknown
18:48 69.8 °F 48.2 °F 29.7 in WSW 18 mph 26.1 mph 44% 0 in 0.00 W/m2 unknown
18:54 69.8 °F 48.2 °F 29.7 in SW 13 mph 26.1 mph 45% 0 in 0.00 W/m2 unknown
18:59 69.8 °F 48.2 °F 29.7 in WSW 11.8 mph 11.8 mph 45% 0 in 0.00 W/m2 unknown
19:04 69.8 °F 48.2 °F 29.7 in SW 9.9 mph 14.3 mph 46% 0 in 0.00 W/m2 unknown
19:09 69.8 °F 48.2 °F 29.7 in SW 5 mph 9.9 mph 46% 0 in 0.00 W/m2 unknown
19:14 69.8 °F 48.2 °F 29.7 in SW 5 mph 5 mph 46% 0 in 0.00 W/m2 unknown
19:19 68 °F 48.2 °F 29.7 in WSW 3.1 mph 5 mph 48% 0 in 0.00 W/m2 unknown
19:24 68 °F 48.2 °F 29.7 in WSW 1.9 mph 3.1 mph 48% 0 in 0.00 W/m2 unknown
19:29 68 °F 48.2 °F 29.7 in WSW 3.1 mph 3.1 mph 51% 0 in 0.00 W/m2 unknown
19:34 66.2 °F 48.2 °F 29.7 in SW 1.9 mph 3.7 mph 51% 0 in 0.00 W/m2 unknown
19:39 66.2 °F 48.2 °F 29.7 in WSW 1.9 mph 1.9 mph 52% 0 in 0.00 W/m2 unknown
19:44 66.2 °F 48.2 °F 29.7 in WSW 3.1 mph 3.1 mph 53% 0 in 0.00 W/m2 unknown
19:48 64.4 °F 48.2 °F 29.7 in West 3.1 mph 3.1 mph 54% 0 in 0.00 W/m2 unknown
19:54 64.4 °F 48.2 °F 29.7 in NNW 6.2 mph 6.2 mph 56% 0 in 0.00 W/m2 unknown
19:59 64.4 °F 48.2 °F 29.7 in WNW 1.9 mph 6.2 mph 57% 0 in 0.00 W/m2 unknown
20:04 62.6 °F 48.2 °F 29.7 in WNW 6.8 mph 6.8 mph 58% 0 in 0.00 W/m2 unknown
20:09 62.6 °F 48.2 °F 29.7 in West 13 mph 13 mph 58% 0 in 0.00 W/m2 unknown
20:14 66.2 °F 50 °F 29.7 in WSW 14.3 mph 14.3 mph 58% 0 in 0.00 W/m2 unknown
20:19 68 °F 50 °F 29.7 in WSW 11.8 mph 16.2 mph 52% 0 in 0.00 W/m2 unknown
20:24 69.8 °F 50 °F 29.7 in WSW 21.1 mph 21.1 mph 50% 0 in 0.00 W/m2 unknown
20:29 69.8 °F 48.2 °F 29.7 in West 14.9 mph 21.1 mph 49% 0 in 0.00 W/m2 unknown
20:34 69.8 °F 50 °F 29.7 in WSW 16.8 mph 18 mph 49% 0 in 0.00 W/m2 unknown
20:39 69.8 °F 50 °F 29.7 in WSW 18 mph 18 mph 50% 0 in 0.00 W/m2 unknown
20:44 69.8 °F 50 °F 29.7 in WSW 21.1 mph 21.1 mph 50% 0 in 0.00 W/m2 unknown
20:48 69.8 °F 50 °F 29.7 in WSW 32.9 mph 32.9 mph 49% 0 in 0.00 W/m2 unknown
20:54 69.8 °F 50 °F 29.7 in SW 24.2 mph 24.2 mph 49% 0 in 0.00 W/m2 unknown
20:59 69.8 °F 50 °F 29.7 in WSW 26.1 mph 26.1 mph 50% 0 in 0.00 W/m2 unknown
21:04 69.8 °F 50 °F 29.7 in WSW 21.1 mph 31.7 mph 50% 0 in 0.00 W/m2 unknown
21:09 69.8 °F 50 °F 29.7 in WSW 36 mph 36 mph 51% 0 in 0.00 W/m2 unknown
21:14 69.8 °F 50 °F 29.6 in WSW 41 mph 41 mph 50% 0 in 0.00 W/m2 unknown
21:19 69.8 °F 50 °F 29.6 in WSW 26.7 mph 41 mph 50% 0 in 0.00 W/m2 unknown
21:24 69.8 °F 50 °F 29.6 in WSW 26.1 mph 26.1 mph 51% 0 in 0.00 W/m2 unknown
21:29 69.8 °F 50 °F 29.6 in WSW 31.7 mph 31.7 mph 51% 0 in 0.00 W/m2 unknown
21:33 69.8 °F 50 °F 29.6 in WSW 29.8 mph 37.3 mph 49% 0 in 0.00 W/m2 unknown
21:39 69.8 °F 50 °F 29.6 in WSW 29.8 mph 29.8 mph 50% 0 in 0.00 W/m2 unknown
21:44 69.8 °F 50 °F 29.6 in West 31.7 mph 31.7 mph 50% 0 in 0.00 W/m2 unknown
21:49 69.8 °F 50 °F 29.6 in West 37.9 mph 37.9 mph 50% 0 in 0.00 W/m2 unknown
21:54 69.8 °F 50 °F 29.6 in WSW 29.8 mph 29.8 mph 51% 0 in 0.00 W/m2 unknown
21:59 68 °F 50 °F 29.6 in West 29.2 mph 29.8 mph 51% 0 in 0.00 W/m2 unknown
22:04 68 °F 50 °F 29.6 in WSW 42.2 mph 42.2 mph 51% 0 in 0.00 W/m2 unknown
22:09 68 °F 50 °F 29.6 in West 39.1 mph 42.2 mph 51% 0 in 0.00 W/m2 unknown
22:14 68 °F 50 °F 29.6 in WSW 47.2 mph 47.2 mph 51% 0 in 0.00 W/m2 unknown
22:19 68 °F 50 °F 29.6 in West 36 mph 47.2 mph 51% 0 in 0.00 W/m2 unknown
22:24 68 °F 50 °F 29.6 in West 39.8 mph 39.8 mph 51% 0 in 0.00 W/m2 unknown
22:28 68 °F 50 °F 29.6 in WSW 42.2 mph 42.2 mph 51% 0 in 0.00 W/m2 unknown
22:34 68 °F 50 °F 29.7 in WSW 31.7 mph 44.7 mph 52% 0 in 0.00 W/m2 unknown
22:39 68 °F 50 °F 29.7 in West 36 mph 36 mph 52% 0 in 0.00 W/m2 unknown
22:44 68 °F 50 °F 29.7 in West 39.8 mph 39.8 mph 52% 0 in 0.00 W/m2 unknown
22:49 68 °F 50 °F 29.7 in West 37.9 mph 42.2 mph 52% 0 in 0.00 W/m2 unknown
22:54 68 °F 50 °F 29.7 in West 37.3 mph 37.3 mph 52% 0 in 0.00 W/m2 unknown
22:59 68 °F 50 °F 29.7 in West 31.7 mph 37.3 mph 52% 0 in 0.00 W/m2 unknown
23:04 68 °F 50 °F 29.7 in West 36 mph 41 mph 52% 0 in 0.00 W/m2 unknown
23:09 68 °F 50 °F 29.7 in West 44.1 mph 44.1 mph 53% 0 in 0.00 W/m2 unknown
23:14 68 °F 50 °F 29.7 in West 31.7 mph 31.7 mph 53% 0 in 0.00 W/m2 unknown
23:19 68 °F 50 °F 29.7 in WSW 39.8 mph 44.1 mph 53% 0 in 0.00 W/m2 unknown
23:23 68 °F 50 °F 29.7 in West 36 mph 36 mph 52% 0 in 0.00 W/m2 unknown
23:29 68 °F 48.2 °F 29.7 in WSW 37.3 mph 37.3 mph 51% 0 in 0.00 W/m2 unknown
23:34 68 °F 48.2 °F 29.7 in West 37.3 mph 42.9 mph 50% 0 in 0.00 W/m2 unknown
23:39 68 °F 46.4 °F 29.7 in West 42.2 mph 42.2 mph 48% 0 in 0.00 W/m2 unknown
23:43 68 °F 46.4 °F 29.7 in West 37.3 mph 37.3 mph 48% 0 in 0.00 W/m2 unknown
23:49 68 °F 46.4 °F 29.7 in West 42.2 mph 42.2 mph 48% 0 in 0.00 W/m2 unknown
Datos historicos para Xert